星链-3967 (STARLINK-3967 )

导读 | 豆包AI

STARLINK-3967是美国SpaceX星链(Starlink)计划中的卫星,于2022年5月14日发射。作为星链低轨互联网星座的组成部分,它旨在为全球提供高速低延迟互联网服务,运行在近地轨道,承担着覆盖偏远地区、补充全球网络覆盖的任务,是星链大规模组网进程中的一颗卫星。

基本信息
目录编号:
52636
目录名称:
STARLINK-3967
国际标识:
2022-052AQ
轨道中心:
EARTH
卫星名称:
星链-3967
卫星全名:
星链-3967 (STARLINK-3967 )
卫星状态:
在轨 (已飞行1401 天)
发射日期:
2022-05-14 UTC
国别 :
美国 (US)
星等 :
--
轨道信息
数据来源 国际轨道数据 AOE轨道数据
星历时间 2026-03-14T19:22:22+0800
14小时前
查看轨道信息
2026-03-12T03:00:00+0800
3天前
查看轨道信息
半长轴 6917.909km 6917.933km
偏心率 0.0001458 0.0001019
轨道倾角 53.216° 53.217°
近地点辐角 128.601° 78.160°
升交点赤经 247.642° 259.688°
平近点角 231.512° 104.861°
近地点 538.763km 539.091km
远地点 540.781km 540.501km
周期 95.438分钟 95.439分钟
每日圈数 15.088309 15.08823
详细信息
固有亮度:
5
最大亮度:
2.5
卫星平台:
Starlink v1.5
覆盖范围:
全球
运营商:
太空探索技术公司
运营商所在国:
美国
制造商(研发单位):
太空探索技术公司
制造商所在国:
美国
使用方式:
暂无
卫星简介
星链(Starlink)计划是由太空探索技术公司(SpaceX)提出的一个巨型低轨卫星互联网星座项目,计划在2019年至2024年间在太空搭建由约1.2万颗卫星组成的“星链”网络,其中1584颗将部署在地球上空550千米处的近地轨道,并从2020年开始工作。该卫星仍在工作。
2D轨道图
3D轨道图
轨道高度分析图
轨道倾角分析图
轨道综合分析图
查看轨道综合分析图